Location: Alta
(39.2070°N, 120.8111°W)
Time: 02:30:35
(UTC+00:00)

ITAMSAT 1 - Pass Details

Date: 02 April 2023
Orbit: 782 x 797 km, 98.8° (Epoch: 29 May)

Event Time Altitude Azimuth Distance (km) Brightness Sun altitude
Exits shadow 04:36:55 - 198° (SSW) 2,942 10.5 -24.6°
Reaches altitude 10° 04:38:39 10° 207° (SSW) 2,350 10.1 -24.9°
Maximum altitude 04:43:01 27° 264° (W) 1,481 9.5 -25.6°
Drops below altitude 10° 04:47:26 10° 322° (NW) 2,370 11.0 -26.4°
Sets 04:50:07 0° 334° (NNW) 3,306 11.8 -26.8°
